Time,TemperatureF,DewpointF,PressureIn,WindDirection,WindDirectionDegrees,WindSpeedMPH,WindSpeedGustMPH,Humidity,HourlyPrecipIn,Conditions,Clouds,dailyrainin,SoftwareType,DateUTC
2013-02-11 00:03:00,31.1,31.0,29.33,NW,309,0.0,4.0,98,0.00,,,0.00,weatherlink.com 1.10,2013-02-11 06:03:00,
2013-02-11 00:18:00,31.1,31.0,29.34,NW,316,2.0,113.0,98,0.00,,,0.00,weatherlink.com 1.10,2013-02-11 06:18:00,
2013-02-11 00:33:00,30.9,30.0,29.34,NNW,334,2.0,2.0,98,0.00,,,0.00,weatherlink.com 1.10,2013-02-11 06:33:00,
2013-02-11 00:48:00,30.4,30.0,29.35,NW,314,0.0,5.0,97,0.00,,,0.00,weatherlink.com 1.10,2013-02-11 06:48:00,
2013-02-11 01:03:00,30.1,29.0,29.36,NW,321,1.0,5.0,97,0.00,,,0.00,weatherlink.com 1.10,2013-02-11 07:03:00,
2013-02-11 01:18:00,30.0,29.0,29.37,WNW,289,1.0,6.0,97,0.00,,,0.00,weatherlink.com 1.10,2013-02-11 07:18:00,
2013-02-11 01:33:00,29.8,29.0,29.38,NNW,327,2.0,6.0,96,0.00,,,0.00,weatherlink.com 1.10,2013-02-11 07:33:00,
2013-02-11 01:48:00,29.7,29.0,29.38,NW,311,2.0,4.0,96,0.00,,,0.00,weatherlink.com 1.10,2013-02-11 07:48:00,
2013-02-11 02:03:00,29.7,29.0,29.39,North,4,2.0,5.0,95,0.00,,,0.00,weatherlink.com 1.10,2013-02-11 08:03:00,
2013-02-11 02:18:00,29.7,29.0,29.40,WNW,303,1.0,5.0,95,0.00,,,0.00,weatherlink.com 1.10,2013-02-11 08:18:00,
2013-02-11 02:33:00,29.7,29.0,29.41,NW,308,1.0,5.0,95,0.00,,,0.00,weatherlink.com 1.10,2013-02-11 08:33:00,
2013-02-11 02:49:00,29.8,28.0,29.42,NW,314,1.0,6.0,94,0.00,,,0.00,weatherlink.com 1.10,2013-02-11 08:49:00,
2013-02-11 03:04:00,29.7,28.0,29.43,WNW,297,2.0,8.0,94,0.00,,,0.00,weatherlink.com 1.10,2013-02-11 09:04:00,
2013-02-11 03:19:00,29.7,28.0,29.44,WNW,284,1.0,6.0,93,0.00,,,0.00,weatherlink.com 1.10,2013-02-11 09:19:00,
2013-02-11 03:34:00,29.5,28.0,29.45,NW,315,3.0,8.0,93,0.00,,,0.00,weatherlink.com 1.10,2013-02-11 09:34:00,
2013-02-11 03:49:00,29.3,28.0,29.45,West,277,1.0,6.0,93,0.00,,,0.00,weatherlink.com 1.10,2013-02-11 09:49:00,
2013-02-11 04:04:00,29.1,27.0,29.46,WNW,294,2.0,5.0,93,0.00,,,0.00,weatherlink.com 1.10,2013-02-11 10:04:00,
2013-02-11 04:19:00,28.9,27.0,29.48,NW,317,1.0,6.0,94,0.00,,,0.00,weatherlink.com 1.10,2013-02-11 10:19:00,
2013-02-11 04:34:00,28.7,27.0,29.49,WNW,300,1.0,7.0,94,0.00,,,0.00,weatherlink.com 1.10,2013-02-11 10:34:00,
2013-02-11 04:49:00,28.4,27.0,29.50,WNW,287,1.0,5.0,94,0.00,,,0.00,weatherlink.com 1.10,2013-02-11 10:49:00,
2013-02-11 05:04:00,28.0,27.0,29.51,WNW,292,3.0,4.0,95,0.00,,,0.00,weatherlink.com 1.10,2013-02-11 11:04:00,
2013-02-11 05:19:00,27.6,26.0,29.52,NW,309,3.0,5.0,95,0.00,,,0.00,weatherlink.com 1.10,2013-02-11 11:19:00,
2013-02-11 05:34:00,27.3,26.0,29.53,WNW,300,1.0,5.0,94,0.00,,,0.00,weatherlink.com 1.10,2013-02-11 11:34:00,
2013-02-11 05:49:00,27.0,25.0,29.54,NW,319,3.0,9.0,93,0.00,,,0.00,weatherlink.com 1.10,2013-02-11 11:49:00,
2013-02-11 06:04:00,26.8,25.0,29.55,WSW,250,1.0,6.0,92,0.00,,,0.00,weatherlink.com 1.10,2013-02-11 12:04:00,
2013-02-11 06:19:00,26.5,25.0,29.57,NW,311,2.0,5.0,92,0.00,,,0.00,weatherlink.com 1.10,2013-02-11 12:19:00,
2013-02-11 06:34:00,26.2,24.0,29.58,WNW,297,2.0,7.0,92,0.00,,,0.00,weatherlink.com 1.10,2013-02-11 12:34:00,
2013-02-11 06:49:00,26.0,24.0,29.59,WSW,240,0.0,6.0,92,0.00,,,0.00,weatherlink.com 1.10,2013-02-11 12:49:00,
2013-02-11 07:04:00,25.8,24.0,29.61,WNW,300,3.0,6.0,91,0.00,,,0.00,weatherlink.com 1.10,2013-02-11 13:04:00,
2013-02-11 07:19:00,25.6,23.0,29.61,NW,312,2.0,6.0,90,0.00,,,0.00,weatherlink.com 1.10,2013-02-11 13:19:00,
2013-02-11 07:34:00,25.2,22.0,29.63,WNW,292,1.0,8.0,89,0.00,,,0.00,weatherlink.com 1.10,2013-02-11 13:34:00,
2013-02-11 07:50:00,24.9,22.0,29.64,NW,319,7.0,9.0,89,0.00,,,0.00,weatherlink.com 1.10,2013-02-11 13:50:00,
2013-02-11 08:05:00,25.1,22.0,29.65,WNW,299,1.0,5.0,89,0.00,,,0.00,weatherlink.com 1.10,2013-02-11 14:05:00,
2013-02-11 08:20:00,25.1,22.0,29.66,NW,316,1.0,6.0,88,0.00,,,0.00,weatherlink.com 1.10,2013-02-11 14:20:00,
2013-02-11 08:35:00,25.5,22.0,29.66,West,267,1.0,5.0,86,0.00,,,0.00,weatherlink.com 1.10,2013-02-11 14:35:00,
2013-02-11 08:50:00,25.6,21.0,29.67,WSW,249,2.0,9.0,84,0.00,,,0.00,weatherlink.com 1.10,2013-02-11 14:50:00,
2013-02-11 09:05:00,25.9,22.0,29.68,WNW,285,2.0,8.0,84,0.00,,,0.00,weatherlink.com 1.10,2013-02-11 15:05:00,
2013-02-11 09:20:00,26.0,22.0,29.69,NW,304,4.0,10.0,83,0.00,,,0.00,weatherlink.com 1.10,2013-02-11 15:20:00,
2013-02-11 09:35:00,26.3,22.0,29.70,WNW,300,3.0,6.0,82,0.00,,,0.00,weatherlink.com 1.10,2013-02-11 15:35:00,
2013-02-11 09:50:00,26.3,22.0,29.71,NW,314,3.0,6.0,82,0.00,,,0.00,weatherlink.com 1.10,2013-02-11 15:50:00,
2013-02-11 10:05:00,26.4,22.0,29.73,SSW,210,1.0,8.0,82,0.00,,,0.00,weatherlink.com 1.10,2013-02-11 16:05:00,
2013-02-11 10:20:00,26.8,22.0,29.73,WSW,239,3.0,6.0,81,0.00,,,0.00,weatherlink.com 1.10,2013-02-11 16:20:00,
2013-02-11 10:35:00,27.1,22.0,29.74,WNW,292,3.0,10.0,80,0.00,,,0.00,weatherlink.com 1.10,2013-02-11 16:35:00,
2013-02-11 10:50:00,27.5,22.0,29.74,NW,318,4.0,9.0,79,0.00,,,0.00,weatherlink.com 1.10,2013-02-11 16:50:00,
2013-02-11 11:05:00,27.5,22.0,29.75,WNW,287,4.0,9.0,79,0.00,,,0.00,weatherlink.com 1.10,2013-02-11 17:05:00,
2013-02-11 11:20:00,28.3,22.0,29.76,NW,304,5.0,9.0,77,0.00,,,0.00,weatherlink.com 1.10,2013-02-11 17:20:00,
2013-02-11 11:35:00,27.9,22.0,29.77,WNW,303,5.0,6.0,77,0.00,,,0.00,weatherlink.com 1.10,2013-02-11 17:35:00,
2013-02-11 11:50:00,27.7,21.0,29.77,WNW,298,4.0,8.0,77,0.00,,,0.00,weatherlink.com 1.10,2013-02-11 17:50:00,
2013-02-11 12:05:00,28.2,22.0,29.78,SE,136,1.0,8.0,77,0.00,,,0.00,weatherlink.com 1.10,2013-02-11 18:05:00,
2013-02-11 12:20:00,27.9,21.0,29.78,West,278,5.0,10.0,75,0.00,,,0.00,weatherlink.com 1.10,2013-02-11 18:20:00,
2013-02-11 12:35:00,28.0,21.0,29.79,WNW,292,8.0,14.0,75,0.00,,,0.00,weatherlink.com 1.10,2013-02-11 18:35:00,
2013-02-11 12:50:00,28.0,21.0,29.80,WNW,301,1.0,11.0,75,0.00,,,0.00,weatherlink.com 1.10,2013-02-11 18:50:00,
2013-02-11 13:05:00,28.3,21.0,29.80,NNW,330,5.0,11.0,74,0.00,,,0.00,weatherlink.com 1.10,2013-02-11 19:05:00,
2013-02-11 13:20:00,28.4,21.0,29.80,WNW,284,4.0,9.0,74,0.00,,,0.00,weatherlink.com 1.10,2013-02-11 19:20:00,
2013-02-11 13:35:00,28.5,21.0,29.81,NW,307,3.0,10.0,73,0.00,,,0.00,weatherlink.com 1.10,2013-02-11 19:35:00,
2013-02-11 13:51:00,28.5,21.0,29.81,West,275,3.0,7.0,73,0.00,,,0.00,weatherlink.com 1.10,2013-02-11 19:51:00,
2013-02-11 14:06:00,28.6,21.0,29.82,WNW,302,10.0,11.0,74,0.00,,,0.00,weatherlink.com 1.10,2013-02-11 20:06:00,
2013-02-11 14:21:00,27.8,21.0,29.83,West,274,7.0,9.0,75,0.00,,,0.00,weatherlink.com 1.10,2013-02-11 20:21:00,
2013-02-11 14:36:00,27.2,21.0,29.83,NW,315,3.0,10.0,76,0.00,,,0.00,weatherlink.com 1.10,2013-02-11 20:36:00,
2013-02-11 14:51:00,26.8,21.0,29.84,West,275,10.0,11.0,77,0.00,,,0.00,weatherlink.com 1.10,2013-02-11 20:51:00,
2013-02-11 15:06:00,26.8,20.0,29.85,WNW,298,6.0,9.0,76,0.00,,,0.00,weatherlink.com 1.10,2013-02-11 21:06:00,
2013-02-11 15:21:00,26.8,20.0,29.86,WNW,283,1.0,13.0,76,0.00,,,0.00,weatherlink.com 1.10,2013-02-11 21:21:00,
2013-02-11 15:36:00,26.7,20.0,29.86,NW,317,3.0,9.0,76,0.00,,,0.00,weatherlink.com 1.10,2013-02-11 21:36:00,
2013-02-11 15:51:00,26.3,20.0,29.87,WNW,293,5.0,12.0,76,0.00,,,0.00,weatherlink.com 1.10,2013-02-11 21:51:00,
2013-02-11 16:06:00,26.0,19.0,29.88,NW,325,2.0,8.0,76,0.00,,,0.00,weatherlink.com 1.10,2013-02-11 22:06:00,
2013-02-11 16:21:00,25.6,19.0,29.88,West,265,3.0,10.0,77,0.00,,,0.00,weatherlink.com 1.10,2013-02-11 22:21:00,
2013-02-11 16:36:00,25.0,19.0,29.89,WNW,283,4.0,9.0,77,0.00,,,0.00,weatherlink.com 1.10,2013-02-11 22:36:00,
2013-02-11 16:51:00,24.4,18.0,29.90,WNW,303,2.0,11.0,78,0.00,,,0.00,weatherlink.com 1.10,2013-02-11 22:51:00,
2013-02-11 17:06:00,23.8,18.0,29.91,WNW,287,2.0,7.0,78,0.00,,,0.00,weatherlink.com 1.10,2013-02-11 23:06:00,
2013-02-11 17:21:00,23.4,18.0,29.91,WNW,302,3.0,6.0,79,0.00,,,0.00,weatherlink.com 1.10,2013-02-11 23:21:00,
2013-02-11 17:36:00,23.2,18.0,29.92,West,275,7.0,8.0,79,0.00,,,0.00,weatherlink.com 1.10,2013-02-11 23:36:00,
2013-02-11 17:51:00,22.9,17.0,29.92,WNW,290,4.0,10.0,79,0.00,,,0.00,weatherlink.com 1.10,2013-02-11 23:51:00,
2013-02-11 18:06:00,22.8,17.0,29.93,WNW,285,4.0,8.0,79,0.00,,,0.00,weatherlink.com 1.10,2013-02-12 00:06:00,
2013-02-11 18:21:00,22.4,17.0,29.94,West,281,3.0,9.0,79,0.00,,,0.00,weatherlink.com 1.10,2013-02-12 00:21:00,
2013-02-11 18:36:00,22.2,17.0,29.94,NW,307,2.0,8.0,80,0.00,,,0.00,weatherlink.com 1.10,2013-02-12 00:36:00,
2013-02-11 18:51:00,22.1,17.0,29.95,WNW,300,2.0,5.0,80,0.00,,,0.00,weatherlink.com 1.10,2013-02-12 00:51:00,
2013-02-11 19:06:00,21.8,17.0,29.94,SW,236,2.0,15.0,80,0.00,,,0.00,weatherlink.com 1.10,2013-02-12 01:06:00,
2013-02-11 19:21:00,21.5,16.0,29.95,NNW,328,1.0,8.0,80,0.00,,,0.00,weatherlink.com 1.10,2013-02-12 01:21:00,
2013-02-11 19:36:00,21.3,16.0,29.95,WNW,295,2.0,6.0,80,0.00,,,0.00,weatherlink.com 1.10,2013-02-12 01:36:00,
2013-02-11 19:51:00,21.1,16.0,29.95,West,271,2.0,6.0,81,0.00,,,0.00,weatherlink.com 1.10,2013-02-12 01:51:00,
2013-02-11 20:07:00,21.0,16.0,29.96,West,276,1.0,6.0,81,0.00,,,0.00,weatherlink.com 1.10,2013-02-12 02:07:00,
2013-02-11 20:22:00,21.0,16.0,29.96,WNW,292,2.0,8.0,81,0.00,,,0.00,weatherlink.com 1.10,2013-02-12 02:22:00,
2013-02-11 20:37:00,21.0,16.0,29.96,WNW,300,3.0,5.0,81,0.00,,,0.00,weatherlink.com 1.10,2013-02-12 02:37:00,
2013-02-11 20:52:00,20.8,16.0,29.97,West,277,1.0,5.0,81,0.00,,,0.00,weatherlink.com 1.10,2013-02-12 02:52:00,
2013-02-11 21:07:00,20.3,15.0,29.97,WNW,282,1.0,5.0,81,0.00,,,0.00,weatherlink.com 1.10,2013-02-12 03:07:00,
2013-02-11 21:22:00,19.7,15.0,29.97,WNW,291,2.0,4.0,82,0.00,,,0.00,weatherlink.com 1.10,2013-02-12 03:22:00,
2013-02-11 21:37:00,19.5,15.0,29.97,West,281,2.0,4.0,82,0.00,,,0.00,weatherlink.com 1.10,2013-02-12 03:37:00,
2013-02-11 21:52:00,19.0,14.0,29.98,West,262,0.0,3.0,82,0.00,,,0.00,weatherlink.com 1.10,2013-02-12 03:52:00,
2013-02-11 22:07:00,18.6,14.0,29.98,SW,232,1.0,4.0,83,0.00,,,0.00,weatherlink.com 1.10,2013-02-12 04:07:00,
2013-02-11 22:22:00,18.5,14.0,29.98,WNW,288,3.0,7.0,83,0.00,,,0.00,weatherlink.com 1.10,2013-02-12 04:22:00,
2013-02-11 22:37:00,17.9,14.0,29.99,WSW,243,1.0,2.0,84,0.00,,,0.00,weatherlink.com 1.10,2013-02-12 04:37:00,
2013-02-11 22:52:00,17.2,14.0,29.99,WNW,284,0.0,3.0,85,0.00,,,0.00,weatherlink.com 1.10,2013-02-12 04:52:00,
2013-02-11 23:07:00,16.6,13.0,29.99,West,273,2.0,2.0,85,0.00,,,0.00,weatherlink.com 1.10,2013-02-12 05:07:00,
2013-02-11 23:22:00,16.0,13.0,29.99,West,281,0.0,2.0,86,0.00,,,0.00,weatherlink.com 1.10,2013-02-12 05:22:00,
2013-02-11 23:37:00,15.3,12.0,29.99,WSW,238,0.0,0.0,87,0.00,,,0.00,weatherlink.com 1.10,2013-02-12 05:37:00,
2013-02-11 23:52:00,14.8,12.0,29.99,WSW,250,0.0,4.0,88,0.00,,,0.00,weatherlink.com 1.10,2013-02-12 05:52:00,